Regional Weather Roundup
Issued by NWS

Home | Current Version | Previous Version | Text Only | Print | Product List | Glossary Off
Versions: 1 2 3 4 5 6 7 8 9 10 11 12 13 14 15 16 17 18 19 20 21 22 23 24 25 26 27 28 29 30 31 32 33 34 35 36 37 38 39 40 41 42 43 44 45 46 47 48 49 50

000
ASUS45 KCYS 290510
RWRWY

WYOMING REGIONAL WEATHER ROUNDUP
NATIONAL WEATHER SERVICE CHEYENNE WY
1100 PM MDT SUN SEP 28 2014

NOTE:  "FAIR" INDICATES FEW OR NO CLOUDS BELOW 12,000 FEET
WITH NO SIGNIFICANT WEATHER AND/OR OBSTRUCTIONS TO VISIBILITY.

WYZ001-290600-
YELLOWSTONE NATIONAL PARK

CITY           SKY/WX    TMP DP  RH WIND       PRES   REMARKS
LK YELLOWSTONE   N/A     42  37  82 CALM      30.15F
W YELLOWSTONE  NOT AVBL

$$
WYZ002>013-054>058-071-098>099-290600-
NORTHERN WYOMING

CITY           SKY/WX    TMP DP  RH WIND       PRES   REMARKS
JACKSON        MOCLDY    41  39  93 SE3       30.12R
CODY           CLOUDY    43  41  93 NE3       30.15S
GREYBULL       CLOUDY    49  47  93 NW7       30.13F
WORLAND        CLOUDY    48  46  93 NE6       30.12F
SHERIDAN       CLOUDY    48  46  93 NE3       30.14F
BUFFALO        CLOUDY    46  44  93 CALM      30.16F
GILLETTE       CLOUDY    48  46  93 N6        30.14S
HULETT         CLOUDY    48  46  93 E12       30.16  FOG
NEWCASTLE      CLOUDY    52  45  76 SE8       30.15

$$
WYZ014>020-022>026-101>103-290600-
CENTRAL WYOMING

CITY           SKY/WX    TMP DP  RH WIND       PRES   REMARKS
BIG PINEY      CLOUDY    45  42  89 N8        30.11F
PINEDALE       CLOUDY    39  39 100 W5        30.13F
DUBOIS         CLOUDY    41  39  93 SE12      30.16S
LANDER         CLOUDY    47  47 100 NW8       30.11S FOG
RIVERTON       CLOUDY    46  44  93 NE13      30.11F
CASPER         CLOUDY    46  43  89 NE13      30.12F
DOUGLAS        LGT RAIN  50  48  93 E13       30.11F

$$
WYZ021-027>030-104>119-290600-
SOUTHERN WYOMING

CITY           SKY/WX    TMP DP  RH WIND       PRES   REMARKS
EVANSTON       LGT RAIN  44  40  85 E8        30.09S
KEMMERER       RAIN      39  37  93 W14       30.10F WCI  31
FORT BRIDGER   CLOUDY    44  43  95 SW12      30.12S
ROCK SPRINGS   LGT RAIN  48  43  82 E10G21    30.10S
DIXON          RAIN      47  44  91 W8        30.19R
RAWLINS        LGT RAIN  47  45  93 E8        30.09F
SARATOGA         N/A     46  45  93 CALM      30.08F
LARAMIE        CLOUDY    47  46  97 NE3       30.13F
CHEYENNE       CLOUDY    49  47  93 N12G20    30.11F
TORRINGTON     LGT RAIN  51  50  96 NE14      30.09F
PINE BLUFFS    MOCLDY    50  50 100 N6        30.08F

$$



USA.gov is the U.S. government's official web portal to all federal, state and local government web resources and services.